Location: Bethune
(34.4150°N, 80.3490°W)
Time: 14:16:10
(UTC-04:00)

ISS - Visible Passes

Search period start: 23 March 2017 00:00
Search period end: 02 April 2017 00:00
Orbit: 399 x 409 km, 51.6° (Epoch: 24 March)

Date Brightness Start Highest point End Pass type
(mag) Time Alt. Az. Time Alt. Az. Time Alt. Az.
23 Mar -2.7 05:40:53 33° N 05:41:48 42° NE 05:44:57 10° ESE visible
24 Mar -0.5 04:51:36 12° E 04:51:36 12° E 04:52:02 10° E visible
24 Mar -2.9 06:24:20 20° W 06:25:48 29° SW 06:28:42 10° SSE visible
25 Mar -2.1 05:35:18 24° SSE 05:35:18 24° SSE 05:36:48 10° SE visible
25 Mar -2.4 20:31:54 10° S 20:34:21 20° SE 20:34:27 20° SE visible
26 Mar -3.5 21:15:01 10° WSW 21:18:14 61° NW 21:18:21 60° NNW visible
27 Mar -3.8 20:22:41 10° SW 20:25:52 58° SE 20:29:04 10° NE visible
27 Mar -0.7 22:00:38 10° WNW 22:01:59 14° NW 22:01:59 14° NW visible
28 Mar -1.6 21:07:15 10° W 21:09:59 24° NW 21:12:35 11° NNE visible
29 Mar -2.8 20:14:20 10° WSW 20:17:28 46° NW 20:20:38 10° NE visible
30 Mar -0.8 21:00:19 10° NW 21:01:52 13° NNW 21:03:25 10° N visible
31 Mar -1.3 20:06:41 10° W 20:09:11 20° NNW 20:11:43 10° NNE visible
